RH
6 6 5 5 4 4 4 3 3 3 2 2 2 2 2 3 3 3 4 4 5 6 6 7 8 8 9 10 10 11 12 13 14 15 16 16 18 18 18 17 16 14 12 11 10 8 8 7 7 6 6 6 6 6 6 6 6 6 6 6 6 7 7 7 7 7 7 7 7 7 7 6 6 6 6 6 6 6 6 6 6 6 5 5 5 5
5 5 4 4 4 3 2 2 2 2 2 2 2 3 3 4 4 5 6 6 7 8 8 8 9 10 10 11 12 12 13 14 15 16 17 18 18 18 16 14 12 11 10 8 8 7 7 7 7 7 7 7 7 7 7 7 7 7 7 7 7 7 7 8 8 8 8 8 8 8 8 8 8 8 8 8 7 7 7 6 6 6 6 6 5 5
4 4 3 3 2 2 2 2 2 2 3 3 4 4 4 5 6 6 7 8 8 9 10 10 11 11 12 12 13 14 14 15 16 17 18 17 16 15 13 11 10 8 8 8 8 8 8 8 9 10 10 10 10 9 9 8 8 8 8 8 7 7 7 7 8 8 8 8 8 8 9 9 9 10 10 9 9 8 8 8 8 7 7 6 6 6
3 3 2 2 2 2 2 2 3 3 4 4 4 5 6 6 7 8 8 10 10 11 11 12 12 13 13 13 14 14 16 16 17 17 16 15 13 11 10 8 8 8 9 10 10 12 13 14 14 14 15 14 14 13 12 11 10 10 9 8 8 8 7 7 7 7 8 8 8 8 9 9 10 10 10 10 10 10 10 10 9 8 8 8 7 7
2 2 2 2 2 2 2 3 4 4 4 5 5 6 6 7 8 8 10 10 12 12 12 13 14 14 14 14 15 16 16 16 16 16 14 12 10 8 8 9 10 12 14 16 18 19 20 21 22 21 21 20 18 18 16 15 14 13 12 11 10 9 8 8 7 7 7 7 7 8 8 8 9 10 10 11 11 12 12 11 11 10 10 10 9 8
2 2 2 2 3 3 4 4 4 5 5 5 6 6 6 7 8 9 10 11 12 13 13 14 14 14 15 15 16 16 16 16 14 12 10 9 9 10 11 14 17 20 23 26 28 29 30 30 29 28 26 24 23 22 20 19 18 17 16 15 14 12 11 10 10 8 8 8 7 7 7 7 8 8 9 10 10 11 12 12 12 12 12 12 11 11
2 2 3 3 4 4 4 5 5 5 5 6 6 6 6 7 8 8 10 10 12 12 13 13 14 14 15 15 16 15 14 13 11 10 9 10 12 15 19 24 28 32 36 38 39 39 38 37 35 33 31 30 28 26 26 24 23 22 21 20 19 18 16 16 14 13 11 10 9 8 8 7 7 7 8 8 9 10 10 11 11 12 12 13 13 13
3 3 4 4 4 4 5 5 5 5 6 6 6 6 6 6 7 8 8 10 10 12 12 13 13 14 14 14 14 13 12 10 10 10 12 15 20 25 31 37 42 46 48 49 48 48 46 44 41 39 36 34 33 32 31 30 30 29 28 27 26 25 24 22 21 19 17 15 14 12 10 9 8 8 7 7 8 8 8 9 10 10 11 12 13 14
4 4 4 4 5 5 5 5 5 5 5 6 6 6 6 6 6 6 7 8 9 10 12 12 12 13 13 13 12 11 10 10 12 14 19 24 30 38 44 50 54 56 57 56 56 54 52 50 46 44 41 39 38 37 36 35 34 34 32 32 32 31 30 29 27 25 23 20 18 16 14 13 11 10 9 8 8 7 7 8 8 8 9 10 11 12
4 5 5 5 5 4 4 4 4 4 5 5 5 6 6 6 6 6 6 7 8 9 10 11 12 12 11 10 10 10 11 14 18 24 29 36 43 50 56 59 61 62 61 60 59 58 56 54 51 48 45 43 42 41 40 38 36 35 34 34 34 34 34 32 31 28 26 24 21 19 17 16 14 13 11 10 9 8 8 8 7 7 8 8 8 9
5 5 5 4 4 4 4 4 4 4 5 5 5 6 6 6 6 6 6 6 7 8 10 10 10 10 9 9 10 13 18 24 29 34 40 47 53 58 62 64 64 64 63 62 61 60 59 58 55 52 50 48 46 44 42 40 37 35 34 33 32 32 32 31 30 28 26 23 21 19 18 16 15 14 13 12 11 10 10 9 8 7 7 6 6 7
5 4 4 3 3 3 3 3 4 4 5 5 5 6 5 6 6 6 6 6 6 7 8 8 8 8 10 12 17 23 30 35 40 45 50 55 60 63 64 64 64 63 62 62 61 61 61 60 58 56 54 52 50 46 44 40 37 34 32 30 29 28 27 26 24 23 21 19 18 16 15 14 14 13 13 12 12 12 11 10 10 8 8 7 6 6
4 3 3 2 2 2 3 3 4 4 5 5 5 5 5 5 5 6 6 6 6 7 7 8 8 11 16 23 30 37 42 45 48 51 54 58 60 62 62 60 60 60 60 60 60 60 61 60 59 57 56 54 50 46 42 38 34 30 28 26 24 22 20 19 17 15 13 12 11 11 10 10 10 10 10 10 10 10 10 10 10 9 8 8 7 7
3 2 2 2 2 3 3 4 4 5 5 5 5 5 5 5 5 5 6 6 6 7 8 10 15 21 30 38 45 50 51 51 52 53 55 57 58 59 58 57 56 56 57 57 58 58 58 58 57 55 52 50 45 40 34 29 25 22 20 18 17 16 14 11 9 8 7 8 8 9 9 9 9 9 9 9 9 8 9 8 8 8 8 7 7 7
2 2 2 2 2 3 4 4 4 5 5 5 5 4 4 4 5 5 6 7 8 12 16 22 28 36 46 53 57 58 56 54 52 52 53 55 56 57 57 56 54 54 54 54 55 55 55 54 51 47 42 38 32 27 22 18 15 13 12 12 10 9 7 6 6 8 10 11 12 12 13 16 18 19 20 22 22 21 20 18 16 14 11 9 8 7
2 2 2 2 3 3 4 4 4 4 4 4 4 4 4 5 6 8 10 14 19 24 31 37 43 50 56 62 64 63 58 54 52 50 51 53 56 58 57 54 52 51 52 54 55 54 52 48 42 36 30 25 20 15 11 8 6 6 6 6 5 5 6 9 11 13 15 18 22 26 31 36 39 42 45 45 45 44 43 40 37 32 27 22 16 12
2 2 2 3 3 3 3 3 3 4 3 4 4 6 8 10 14 18 24 30 36 42 48 52 54 57 59 63 66 65 60 54 51 50 50 53 55 56 55 52 51 52 54 56 55 52 46 40 34 28 22 17 12 8 4 2 2 2 2 3 6 8 12 15 18 22 27 33 39 45 50 54 56 58 59 58 58 58 58 55 53 50 46 41 34 27
2 2 3 3 3 3 3 3 4 5 6 8 11 14 19 24 31 37 44 50 54 57 59 60 60 61 61 63 64 64 59 54 51 50 50 52 54 55 55 54 54 56 58 56 52 46 40 34 30 24 19 13 8 4 2 1 1 3 6 10 13 16 18 22 28 34 42 48 53 57 61 64 67 69 70 68 68 66 64 62 60 58 56 53 49 43
3 3 3 3 4 4 5 7 10 13 16 21 26 32 38 45 52 58 62 65 66 65 64 64 64 64 65 65 64 62 58 54 51 50 50 51 54 58 60 59 58 58 57 53 48 42 37 34 30 24 18 13 9 7 6 6 8 10 14 16 18 21 26 34 41 48 53 58 61 64 67 70 71 72 72 72 71 70 69 67 65 63 60 58 56 53
4 4 6 6 8 10 14 19 25 31 36 42 46 52 57 62 65 68 69 68 68 66 66 66 67 67 66 66 64 62 58 54 52 50 50 53 59 64 65 62 58 55 54 52 48 44 40 37 32 26 20 17 15 14 14 15 16 18 18 20 24 30 38 45 51 56 59 62 64 65 66 68 68 68 68 67 67 67 66 66 66 66 65 64 61 59
7 9 12 16 19 24 30 38 46 52 57 60 62 64 66 67 68 68 68 67 66 67 68 68 69 69 68 67 66 63 60 56 53 51 52 57 64 68 67 61 57 55 55 55 52 48 44 38 32 28 24 23 22 21 20 20 19 19 22 28 35 42 49 53 56 58 60 61 62 62 62 62 61 60 60 61 62 63 64 65 66 67 67 67 66 64
15 19 24 31 38 44 50 56 61 65 67 67 67 66 66 66 66 66 66 66 67 68 70 72 72 72 71 70 68 65 62 58 55 54 55 60 66 70 67 61 58 58 60 58 54 49 43 38 34 30 28 27 26 24 22 20 20 24 31 38 45 50 54 57 58 60 60 60 60 58 58 57 56 57 58 59 61 62 63 65 66 66 67 67 67 66
28 34 41 48 54 58 62 64 66 66 66 66 65 64 64 65 66 66 66 67 68 70 72 74 74 74 74 73 70 67 63 59 57 56 59 63 68 70 67 63 62 62 62 58 52 46 41 37 34 31 30 29 27 24 21 22 26 33 41 47 51 55 58 59 60 60 60 60 59 58 58 58 60 61 62 64 66 66 66 66 66 65 64 64 64 64
42 48 54 58 62 64 64 64 64 64 63 63 63 63 64 66 67 68 68 69 71 73 74 74 74 74 74 73 70 67 64 60 58 60 62 66 69 71 68 66 64 63 62 57 50 43 38 36 34 32 31 30 27 24 23 27 34 42 48 52 55 58 59 60 61 61 61 61 62 63 65 66 68 69 70 71 71 71 71 69 66 64 62 60 60 59
53 57 60 62 63 64 64 63 63 62 62 62 63 64 66 68 70 72 72 73 74 74 74 74 74 74 73 71 69 67 64 62 61 62 64 67 70 72 70 66 65 64 62 58 51 44 38 36 34 33 32 29 27 26 27 34 41 47 52 55 57 59 61 62 62 62 62 64 66 68 70 71 71 72 72 72 72 72 71 69 66 64 61 59 57 56
60 62 63 64 64 64 64 65 65 65 65 65 66 66 68 70 72 73 73 72 72 71 71 71 72 73 74 72 70 68 66 65 64 64 66 68 70 71 70 68 66 66 64 59 53 46 40 37 36 34 32 30 28 29 33 40 46 51 55 58 60 62 63 63 62 63 64 67 69 70 70 70 70 71 71 70 70 68 67 65 63 61 60 58 56 54
64 65 66 66 66 66 67 68 68 68 69 70 70 71 71 71 70 69 69 68 68 68 68 69 71 73 75 74 73 71 68 66 66 66 67 69 70 71 70 68 68 67 66 61 55 49 44 40 38 36 33 31 32 34 38 44 50 55 59 62 64 66 66 64 64 66 67 68 69 69 69 69 68 67 66 63 60 57 54 52 52 53 53 52 50 47
68 68 68 69 69 69 70 71 72 72 73 74 74 72 70 68 66 65 65 65 65 66 67 69 71 74 76 76 75 73 70 68 66 66 68 69 70 71 70 69 69 68 67 62 58 52 47 43 40 37 34 34 36 38 42 48 53 58 62 66 68 68 68 68 68 69 70 70 70 70 68 66 63 59 54 50 45 41 37 36 36 37 38 37 36 34
70 70 71 72 72 72 73 74 74 74 75 74 73 70 67 65 64 64 64 64 64 66 68 70 72 74 76 76 76 76 73 70 68 67 67 69 70 71 70 70 70 69 68 64 59 54 50 45 42 38 37 38 40 42 47 52 56 60 65 69 71 71 71 72 72 72 72 72 71 68 65 61 56 52 48 44 40 37 34 31 29 27 26 25 25 25
71 72 73 74 74 74 74 75 75 75 74 72 70 67 65 65 65 65 64 64 65 66 68 70 72 73 74 76 76 76 75 73 70 68 68 69 70 71 72 72 72 71 69 66 62 58 52 48 44 40 40 42 43 46 50 53 56 61 67 71 73 74 74 74 74 73 72 71 69 66 63 60 58 56 54 53 51 49 46 41 36 30 25 22 21 21
71 72 74 75 75 75 75 75 75 74 72 70 68 67 67 68 68 67 66 66 67 68 69 70 71 72 73 74 76 76 76 75 73 71 70 71 72 72 72 73 73 73 71 68 66 62 56 51 47 43 42 43 45 48 51 53 57 62 68 71 73 74 74 74 74 72 71 69 66 65 64 63 63 63 63 62 62 62 59 56 51 43 34 26 20 18
71 73 74 75 76 75 75 74 74 72 70 70 70 70 71 71 70 69 68 68 68 69 69 69 69 70 71 74 75 76 76 76 75 74 72 73 73 73 73 74 74 74 73 70 68 65 61 56 51 48 45 45 46 50 53 55 60 64 69 70 72 74 75 74 72 70 68 66 65 64 64 64 65 65 66 66 66 67 65 65 62 57 48 36 25 18
71 73 74 75 75 75 74 73 72 71 71 72 73 73 74 73 71 70 69 69 70 70 69 68 67 67 68 72 74 76 76 76 75 74 74 73 74 74 74 74 74 74 74 72 70 68 65 61 57 54 51 50 52 54 58 60 63 66 69 70 72 74 74 73 70 68 65 64 63 63 64 64 65 66 66 67 67 67 67 67 66 64 59 47 33 21
72 73 74 74 74 74 73 72 72 73 74 74 74 74 74 73 72 70 70 70 71 71 70 67 66 65 66 68 72 74 76 76 76 74 74 74 74 74 74 74 74 74 75 74 72 70 68 66 63 61 59 58 59 61 64 66 67 68 70 72 73 74 74 72 69 66 64 63 62 62 65 66 67 68 68 68 69 69 69 69 70 69 65 55 40 26
72 72 73 73 74 74 74 74 74 75 75 75 76 75 75 73 72 71 71 72 72 72 70 68 66 66 66 67 69 72 74 74 75 75 76 75 74 74 75 74 74 74 75 75 74 74 72 70 68 66 65 65 66 68 69 70 71 71 72 73 74 74 73 70 68 66 64 62 62 64 67 69 70 70 71 71 72 72 72 71 71 70 68 60 46 31
72 72 72 73 74 74 75 75 75 76 76 76 76 76 75 74 73 72 72 73 73 73 72 70 69 68 68 68 69 70 71 72 74 76 76 76 76 75 76 75 74 74 74 75 75 75 75 74 72 70 68 70 72 73 74 73 73 73 72 73 74 74 72 69 66 65 64 63 64 66 69 71 72 72 72 72 72 72 72 72 71 70 68 63 51 36
72 73 74 74 75 76 76 76 76 76 76 76 76 76 76 74 74 74 74 74 74 74 74 74 72 72 72 71 70 70 70 71 73 75 77 76 76 76 76 76 74 74 74 74 74 74 76 76 74 74 72 73 74 76 75 74 73 72 71 72 74 74 72 68 66 65 64 65 65 66 70 71 72 73 73 73 72 72 72 72 72 71 69 65 56 42
74 74 75 76 76 76 76 76 76 76 76 76 76 76 76 75 75 75 75 75 76 76 76 75 75 74 74 73 72 71 70 72 74 76 77 77 76 76 76 76 74 74 73 72 72 72 74 76 76 76 75 74 74 74 74 74 71 69 68 72 73 73 70 67 66 66 66 67 67 67 67 69 71 73 73 73 72 71 71 71 70 69 68 65 57 45
75 76 76 76 76 76 76 76 76 76 76 76 76 76 76 76 76 76 76 76 76 76 76 76 76 76 76 74 73 72 72 73 74 76 77 77 77 77 76 76 74 73 72 72 71 71 72 72 73 74 76 75 74 74 74 71 68 66 68 72 73 71 66 65 65 66 67 69 67 64 61 65 69 72 73 72 72 71 71 71 68 65 61 58 51 40
76 76 76 76 76 76 76 76 76 76 76 76 76 76 76 76 76 76 76 76 76 76 76 76 76 76 76 75 74 73 73 74 76 77 77 77 77 77 76 76 74 74 73 72 71 71 70 68 65 64 67 72 72 70 66 66 67 69 72 72 70 65 60 64 65 66 68 69 66 60 53 56 63 70 73 73 72 72 72 70 64 57 50 47 42 34
76 76 76 76 76 76 76 76 76 76 76 76 76 76 76 76 76 76 76 76 76 76 76 76 76 76 76 76 74 74 73 74 76 77 77 77 77 77 77 76 76 75 74 72 72 71 70 69 68 68 69 69 69 67 65 68 70 71 71 68 64 61 62 65 66 68 69 70 66 59 47 46 53 64 70 72 72 70 68 63 56 49 44 41 36 29
76 76 76 76 76 76 76 76 76 76 76 76 76 76 76 76 76 76 76 76 76 76 76 76 77 77 76 76 76 74 74 74 76 77 77 77 77 77 76 76 76 76 75 74 72 71 70 70 70 70 69 69 68 68 69 70 70 68 63 60 59 61 64 68 70 72 73 72 70 63 47 38 41 51 60 63 65 66 66 66 62 55 48 45 38 28
76 76 76 76 76 76 76 76 76 76 76 76 76 77 77 77 76 76 76 76 76 76 76 76 77 77 77 77 76 76 74 75 76 77 77 77 77 77 76 76 76 75 75 74 73 71 70 70 68 68 69 71 71 71 72 69 65 61 58 58 61 65 70 72 73 74 74 73 72 67 56 44 38 37 42 48 56 63 67 70 70 66 58 55 46 32
74 74 75 75 75 75 75 75 76 76 76 76 76 76 77 77 77 77 76 76 76 76 76 77 77 77 77 77 77 76 76 76 76 77 77 77 77 76 76 74 73 73 74 73 71 69 70 70 70 70 71 69 67 64 61 59 58 58 60 63 66 70 74 74 74 74 74 73 73 71 68 59 50 42 41 47 57 66 68 71 72 70 64 61 54 40
72 72 72 72 72 73 73 73 73 74 74 74 75 76 77 77 77 77 76 77 77 77 77 77 77 77 77 77 77 77 76 77 77 77 77 77 76 74 71 71 70 70 70 66 62 61 62 66 66 65 61 57 54 53 53 56 58 61 64 68 71 73 74 75 74 74 74 74 74 73 72 67 60 55 55 59 64 68 70 72 72 71 68 62 59 52
68 67 67 67 67 67 67 68 68 70 70 72 73 74 76 77 77 77 77 77 77 77 77 76 76 77 77 77 77 77 77 77 77 77 77 75 70 64 62 65 67 66 62 57 55 55 58 59 57 53 50 50 52 56 60 62 65 67 69 72 74 74 75 75 74 74 74 73 70 66 62 58 57 58 62 66 68 69 71 72 72 72 74 66 64 61
61 60 59 58 58 59 60 61 62 63 65 67 69 72 74 76 76 77 77 77 77 77 77 77 77 77 77 77 76 76 77 77 77 77 76 71 62 54 52 58 60 60 56 54 53 54 54 52 51 50 51 56 60 64 66 68 70 72 74 74 75 74 74 74 74 74 74 69 61 52 44 40 40 44 52 59 65 68 71 72 72 72 71 68 68 68
51 50 48 48 48 49 50 52 54 55 57 60 64 68 71 74 75 76 76 76 76 76 77 77 77 77 77 77 76 76 77 77 77 76 74 66 55 46 46 50 53 54 54 54 54 54 53 53 54 57 61 64 66 68 69 71 73 74 75 76 74 74 73 74 74 74 71 65 56 47 36 30 27 28 34 42 52 60 66 69 72 72 68 68 68 70
40 38 36 36 36 38 39 42 44 46 49 52 57 62 66 70 72 74 75 75 76 76 77 77 77 77 77 77 77 76 76 77 76 74 71 62 51 42 42 44 48 50 53 55 56 56 56 58 60 63 65 66 67 69 72 74 74 75 75 76 74 73 72 74 74 73 70 66 58 49 37 29 25 24 26 30 38 47 58 64 65 64 62 66 69 70
28 27 26 26 26 27 28 31 34 36 40 44 49 54 60 64 68 72 74 75 76 76 77 77 77 77 77 77 77 77 76 77 76 73 68 60 50 42 41 42 46 50 54 56 57 58 60 63 65 66 67 68 69 72 74 75 75 75 75 75 74 72 72 73 74 73 72 69 64 56 45 38 33 32 32 34 39 46 54 55 52 51 54 64 69 70
19 18 18 18 18 19 20 22 24 26 30 34 40 45 52 58 63 68 72 74 75 76 77 77 77 77 77 77 77 76 76 77 76 72 65 59 50 43 41 42 45 49 53 56 58 60 63 66 67 68 70 71 72 74 75 74 74 75 75 75 74 73 72 71 71 72 74 73 70 64 57 52 48 47 46 46 48 50 54 54 51 48 48 59 67 70
Wind_Speed
121 122 122 122 120 119 117 116 113 110 107 106 104 100 97 94 91 87 84 81 78 77 75 74 73 71 70 68 67 66 65 64 64 64 64 66 67 69 71 73 74 75 76 77 77 77 77 77 76 76 75 75 74 74 74 73 74 73 73 73 72 72 71 71 71 71 71 70 70 69 69 68 68 68 68 68 68 69 69 70 71 72 73 74 75 75
122 122 121 120 118 115 113 112 109 105 101 100 98 95 91 88 85 82 79 76 74 73 71 71 70 69 67 66 65 64 63 63 63 64 65 67 69 71 72 73 74 75 75 75 75 75 74 74 73 72 72 71 71 71 71 71 71 71 71 71 70 70 69 69 69 69 68 68 67 67 66 65 65 65 65 65 65 66 66 67 68 69 70 70 71 72
121 120 119 117 114 111 108 106 103 100 97 94 92 90 86 83 80 78 75 73 71 70 69 68 68 67 66 65 64 63 63 63 64 65 66 68 70 71 72 72 72 72 72 72 71 71 70 70 69 69 68 68 68 68 68 68 68 68 69 69 69 68 68 68 68 67 67 66 66 65 64 63 63 63 63 63 63 63 64 64 65 66 66 67 68 69
119 116 115 113 110 107 103 100 97 95 93 91 88 86 83 80 78 75 73 71 70 69 68 67 66 66 65 64 63 63 63 63 64 66 67 69 69 70 70 69 69 68 68 67 67 66 66 66 65 65 65 65 65 65 65 65 65 66 66 66 66 66 66 66 66 66 66 65 65 64 63 63 62 62 61 61 62 62 62 63 63 63 64 64 65 66
116 112 110 107 105 102 100 96 94 92 90 88 86 83 81 78 76 74 72 70 69 68 67 66 65 65 64 63 63 63 63 64 65 66 67 67 67 66 66 65 64 64 63 63 62 62 62 62 62 62 62 62 62 62 62 62 62 62 63 63 63 63 64 64 64 64 64 64 64 64 63 63 62 61 61 61 61 61 61 61 61 61 62 62 62 63
111 108 105 102 100 98 96 94 92 90 88 86 84 82 79 77 75 73 71 70 69 67 67 66 65 64 63 63 63 63 63 64 65 65 64 64 63 61 61 60 59 59 58 58 58 58 58 59 59 59 58 58 58 58 58 58 58 58 59 59 59 60 60 60 61 61 62 62 62 62 62 62 61 61 61 60 60 61 61 61 60 60 60 60 61 61
107 104 101 99 97 95 93 91 90 88 86 85 83 81 79 76 74 72 70 69 68 67 66 65 64 63 62 62 62 63 63 63 63 61 60 59 57 56 55 55 54 54 54 55 55 56 56 56 56 56 56 56 56 55 55 55 55 55 55 55 55 55 56 56 57 57 58 59 60 60 60 61 61 60 60 60 60 60 60 60 60 59 59 60 60 60
102 100 99 96 95 93 92 90 88 86 84 83 81 79 77 75 72 70 69 68 67 66 65 64 62 61 60 61 61 61 61 60 59 57 55 53 52 51 50 50 50 51 52 52 53 54 54 54 55 54 54 54 54 53 53 53 52 52 52 51 51 51 51 51 52 53 54 55 56 56 57 58 58 59 59 59 59 59 59 59 59 59 59 60 60 61
98 97 96 95 93 91 89 88 86 83 81 80 78 76 74 72 70 68 66 65 64 63 63 62 61 59 58 58 58 58 57 56 54 52 50 48 47 47 46 47 48 49 50 51 52 53 53 54 54 54 54 54 53 53 53 52 51 51 50 49 48 47 47 48 48 49 50 51 52 52 53 54 55 56 56 57 57 58 58 59 59 59 60 60 61 61
96 94 93 92 91 88 86 84 82 79 77 75 73 72 70 68 67 65 63 61 60 59 58 58 58 57 56 55 54 53 52 50 48 46 45 45 44 44 45 46 47 49 50 51 52 53 53 54 54 54 54 54 54 53 53 52 51 50 49 47 46 45 45 45 45 46 46 47 48 49 50 51 51 52 53 54 54 55 56 57 58 59 60 60 61 62
93 92 90 88 87 84 81 78 76 73 71 69 67 66 64 63 62 60 59 56 54 53 53 53 53 52 52 51 49 47 46 45 44 43 42 42 43 44 45 46 48 49 50 51 52 52 53 53 54 54 54 54 54 54 53 53 52 51 49 47 46 44 43 43 43 43 44 45 45 46 46 47 48 48 49 50 51 52 53 55 56 57 59 60 60 61
89 87 85 83 80 78 75 72 69 67 64 62 61 59 58 56 55 54 53 51 49 47 47 46 46 46 46 45 44 43 42 41 41 41 41 42 43 44 46 47 49 50 50 51 51 52 52 52 53 53 53 54 54 54 53 53 52 51 50 48 46 44 42 41 41 41 41 42 42 42 43 43 43 44 45 46 47 48 50 51 53 55 56 57 58 59
84 82 79 77 73 70 67 65 62 60 58 56 54 53 52 50 48 47 46 45 43 42 42 41 41 40 40 40 40 40 40 40 41 41 42 43 44 45 46 48 48 49 49 49 49 49 49 50 50 51 51 52 52 53 53 52 52 51 49 47 45 43 40 39 38 38 38 38 38 38 38 38 38 39 40 41 42 43 45 47 49 50 52 53 54 56
79 76 73 70 66 63 60 58 55 53 51 50 48 47 45 44 42 41 40 38 37 37 37 37 36 35 35 36 37 39 40 41 42 42 42 42 43 44 45 46 46 46 46 45 45 45 45 46 47 47 48 49 50 51 51 51 50 49 47 45 43 40 38 36 34 33 33 32 32 32 32 31 32 32 33 34 35 37 38 40 42 44 46 48 50 51
73 69 66 63 60 56 54 52 50 48 46 44 42 41 39 38 36 35 35 34 33 33 33 32 32 32 32 34 37 40 41 42 42 41 41 40 40 41 42 43 42 42 42 41 41 41 42 43 44 45 46 47 47 48 48 47 46 45 43 41 38 36 33 31 30 28 27 26 25 24 24 23 23 24 24 26 27 29 31 33 35 37 40 42 45 47
66 63 60 57 54 51 48 46 44 43 41 39 37 36 35 33 32 31 31 30 30 30 30 30 30 30 31 34 37 40 42 42 41 39 38 37 36 37 39 39 39 38 38 38 38 39 40 42 42 43 43 44 44 44 43 42 41 39 37 35 33 30 28 26 24 22 20 18 17 16 16 16 16 17 18 20 21 23 25 27 29 32 34 37 39 42
60 57 54 51 49 46 43 41 40 38 37 35 33 32 31 30 29 29 29 29 29 29 30 30 31 31 31 32 35 38 39 39 38 36 34 33 33 34 35 36 36 36 35 36 37 39 40 40 40 40 40 40 40 39 38 36 35 33 31 29 27 25 23 20 17 15 13 12 11 11 12 12 14 15 16 18 20 21 23 25 27 29 31 33 35 37
55 52 49 47 44 42 39 37 36 35 33 32 30 29 28 28 28 28 28 29 30 30 31 31 31 31 31 30 31 33 35 35 34 32 31 30 30 31 33 34 34 34 34 35 37 38 38 38 37 37 37 36 35 34 32 31 29 27 26 24 22 19 16 13 11 9 8 8 8 9 10 12 13 15 16 18 20 22 24 26 28 29 31 32 34 35
49 47 45 43 40 38 35 34 33 32 31 30 29 28 27 27 27 28 29 30 30 31 30 30 29 29 28 27 28 30 31 32 31 30 28 27 27 28 31 32 33 33 33 34 35 36 35 35 34 34 34 33 31 30 28 27 25 24 22 19 16 13 10 8 7 6 7 8 9 10 12 13 15 16 18 19 21 23 25 26 28 30 31 33 34 35
44 42 40 39 37 35 33 31 31 30 30 29 28 28 28 27 28 28 29 29 29 28 28 27 26 26 26 26 27 28 29 29 29 27 26 24 25 26 29 30 31 31 31 32 33 33 33 32 32 31 31 30 28 27 26 24 22 20 17 13 10 8 6 5 6 6 8 9 11 12 14 15 17 18 19 21 22 24 25 27 29 30 32 33 35 36
40 38 36 35 34 33 31 30 29 29 29 29 29 29 28 28 28 27 27 27 26 25 25 25 25 25 25 26 27 27 28 28 27 25 23 22 23 25 27 28 29 29 29 30 31 31 31 30 29 29 29 28 27 25 23 21 18 14 11 8 6 5 5 5 7 8 10 12 13 15 16 18 19 20 21 23 24 26 28 29 30 32 33 34 35 36
37 35 33 32 32 31 30 29 29 29 29 29 29 29 29 28 27 26 25 24 24 23 23 23 24 24 25 25 26 26 27 26 25 24 22 20 21 23 26 27 27 28 29 29 30 29 29 28 27 27 27 26 25 23 20 16 12 9 6 5 4 4 6 7 9 10 12 14 15 17 18 20 21 23 24 26 28 29 31 32 33 34 35 35 36 37
34 33 31 31 31 31 30 30 30 30 30 29 29 29 28 27 27 26 25 24 23 23 22 22 22 22 23 24 25 25 26 25 24 23 21 20 20 22 25 26 27 28 28 29 29 28 27 26 26 25 25 24 22 19 15 11 8 6 4 4 5 6 7 9 11 13 14 16 18 19 21 23 25 26 28 30 31 33 35 36 36 36 36 36 36 36
33 32 32 31 31 31 31 31 31 30 30 29 28 28 27 27 26 26 25 24 23 22 20 19 19 20 21 22 23 24 25 25 24 23 22 21 22 23 25 26 27 27 28 29 29 28 27 25 25 24 23 22 19 15 11 8 5 4 4 5 6 8 10 12 14 15 17 19 21 23 24 26 28 29 31 33 34 36 37 37 37 37 36 36 36 36
34 34 33 33 33 33 33 32 32 31 30 29 28 28 27 27 26 26 25 24 22 20 19 18 18 19 20 22 23 25 25 25 25 24 24 24 24 25 26 27 27 27 27 28 29 28 27 25 24 23 21 19 16 12 8 6 5 4 5 6 8 11 13 15 17 18 20 22 24 25 27 29 30 31 33 34 36 37 37 37 37 36 36 35 35 35
35 35 35 34 34 34 33 33 32 32 31 30 29 28 27 26 25 24 23 22 20 19 18 17 18 19 21 23 25 26 27 27 27 27 27 27 27 27 27 27 27 26 26 27 28 28 27 25 23 22 20 17 14 10 7 5 5 5 7 9 12 14 16 18 19 21 23 25 27 28 30 31 32 33 34 35 35 35 35 35 34 34 34 35 35 36
36 35 35 34 34 33 32 32 31 31 31 30 30 29 28 26 24 23 22 21 20 20 19 19 19 20 21 23 25 27 28 29 29 29 29 29 29 29 28 27 26 25 24 25 26 27 26 24 23 20 18 15 12 9 7 5 5 7 10 12 15 17 19 21 22 24 26 28 30 31 32 32 33 33 32 32 32 31 31 31 31 32 33 35 35 36
35 34 33 33 32 31 31 30 30 30 30 29 29 29 28 27 25 24 23 22 22 22 22 22 22 22 22 24 25 28 29 30 31 31 30 30 30 30 29 28 26 24 22 22 24 25 25 24 22 19 16 13 11 8 6 6 7 9 12 15 18 20 22 24 25 27 29 30 31 32 31 31 30 28 27 27 26 26 26 27 28 30 31 33 34 34
33 32 31 31 30 29 29 29 28 28 28 29 29 29 29 28 27 26 26 25 24 24 24 24 24 24 24 24 25 27 29 31 31 31 31 31 30 30 29 28 26 23 21 20 21 23 24 23 21 18 15 12 9 7 6 6 8 12 15 18 20 22 24 25 27 28 29 29 29 28 26 25 23 22 21 21 21 22 24 25 26 28 29 30 31 31
30 29 29 28 28 28 27 27 27 27 28 28 29 30 30 29 29 28 28 27 26 26 25 25 25 25 25 25 25 26 28 30 31 32 31 31 30 30 29 28 26 23 21 19 19 20 22 22 20 16 13 11 8 6 5 7 10 14 17 19 21 22 24 25 25 26 26 26 24 22 20 18 17 17 18 19 20 22 23 25 26 27 27 28 28 28
27 27 27 27 26 26 26 26 26 26 27 28 29 30 30 31 31 30 30 29 28 27 27 26 26 26 26 26 26 27 28 29 30 31 31 31 30 30 29 27 25 23 20 18 17 17 18 20 19 16 12 9 7 6 6 9 12 15 17 19 20 21 22 23 23 24 23 22 19 17 15 15 15 17 19 21 22 24 26 27 28 29 29 28 27 27
26 25 25 25 25 25 25 25 25 26 27 28 29 30 30 31 31 31 30 29 29 28 28 27 26 26 26 27 28 28 29 30 30 31 31 31 30 30 29 27 25 23 20 18 16 15 15 17 17 15 12 9 7 7 8 10 13 15 17 19 20 21 21 22 22 22 22 20 16 13 13 14 16 19 21 23 25 27 29 31 32 32 32 31 29 27
25 25 24 24 24 24 24 25 25 26 27 27 28 29 29 30 30 30 30 30 29 29 29 28 27 27 26 27 28 29 30 31 32 32 32 31 30 29 28 27 25 23 20 17 16 15 14 15 15 15 13 11 9 9 10 12 14 16 18 19 20 20 20 21 21 22 21 19 16 13 12 14 17 20 23 25 27 28 30 32 33 34 34 33 31 29
24 24 24 24 24 24 24 25 25 26 26 27 27 28 28 29 29 29 29 29 30 30 30 29 29 28 28 28 29 30 31 33 33 33 33 32 30 29 27 26 24 22 19 17 15 14 14 14 14 14 14 13 13 12 13 14 15 17 18 19 20 20 19 20 21 22 21 18 16 14 13 15 17 20 22 24 26 28 29 31 32 34 35 34 33 30
24 24 24 23 23 24 24 25 25 25 26 26 26 27 27 28 28 28 29 29 29 30 30 30 30 30 30 30 31 31 32 34 34 34 34 32 30 28 26 24 23 21 18 16 14 13 13 13 14 14 14 14 15 14 14 15 16 17 18 19 19 18 18 20 21 21 20 18 16 14 13 14 15 17 19 21 23 25 27 28 30 31 33 33 32 31
24 24 24 23 23 24 24 24 25 25 25 25 25 26 26 27 27 28 28 28 29 29 29 30 31 31 32 32 33 33 34 35 35 35 33 31 29 27 24 23 21 19 17 14 12 11 12 13 13 13 14 14 15 16 16 16 16 17 18 18 17 17 17 19 21 21 19 17 16 14 13 12 13 14 16 18 20 23 25 26 28 29 30 31 31 30
24 24 24 24 24 24 24 24 24 24 24 24 25 25 25 26 26 27 27 27 27 28 28 29 30 31 32 33 34 35 35 35 35 34 32 30 28 25 23 21 19 17 15 13 11 10 11 12 13 14 14 14 15 16 16 16 16 16 16 16 16 16 17 19 21 20 19 17 16 14 12 11 10 11 12 15 18 20 23 24 26 27 28 29 30 29
25 25 25 25 25 24 24 24 24 24 24 24 24 24 25 25 25 26 26 26 26 26 27 28 29 30 32 33 34 35 36 36 35 33 31 28 26 25 23 21 19 17 15 13 12 11 11 12 13 13 14 14 14 15 14 14 14 14 15 15 14 15 16 19 20 19 18 18 16 15 12 10 9 9 10 12 15 17 19 21 24 25 26 27 28 28
26 26 26 26 25 25 24 24 24 24 24 25 24 24 24 25 25 25 25 25 25 25 26 27 28 29 31 32 34 35 36 35 34 31 29 27 26 24 23 21 19 18 17 16 14 13 13 12 12 12 12 12 13 13 12 12 12 13 14 14 14 15 16 18 19 19 18 18 18 16 13 11 9 8 8 9 11 12 14 17 20 23 24 25 25 25
26 27 27 26 26 25 25 25 24 25 25 25 25 25 24 24 24 24 24 24 24 24 25 25 27 28 30 32 33 34 35 34 32 30 28 26 25 25 24 22 21 20 19 18 17 16 15 14 13 13 12 11 11 11 11 11 11 12 13 13 14 15 16 17 18 19 19 19 19 17 14 11 9 7 6 6 7 8 11 14 17 20 21 22 23 23
27 27 27 26 26 26 25 25 25 25 25 25 25 25 25 24 24 23 23 23 23 23 23 24 26 27 29 31 33 34 34 32 30 28 26 26 25 25 25 24 23 22 21 20 19 18 16 15 14 13 12 12 11 10 10 10 11 12 13 13 13 13 14 16 18 19 20 20 20 18 14 11 9 7 7 7 7 9 11 14 17 19 20 21 21 20
27 27 27 26 26 26 26 25 25 25 25 25 25 25 25 24 24 23 23 22 22 22 22 23 24 26 27 29 31 32 32 31 28 27 26 26 26 26 25 25 24 23 21 20 19 18 17 16 15 14 13 12 11 11 10 11 11 11 11 11 11 13 15 17 19 20 20 20 19 17 14 11 8 7 7 8 8 10 13 17 19 20 20 20 20 18
27 27 27 27 27 26 26 26 25 25 24 24 25 25 25 24 24 23 22 22 22 21 22 23 24 25 26 28 29 30 30 29 27 26 26 26 26 26 25 24 23 21 20 19 18 18 17 17 16 15 14 13 12 11 11 11 11 11 11 11 12 13 14 16 18 20 20 19 18 16 14 11 9 7 7 7 8 11 15 19 20 21 20 19 18 17
28 28 28 27 27 27 26 26 26 25 25 24 24 24 24 24 24 23 22 22 22 22 22 22 23 24 25 26 27 28 28 27 26 25 25 26 26 26 24 23 21 20 19 18 17 17 17 17 16 16 15 14 12 11 11 11 11 12 12 12 13 14 16 17 18 19 19 18 16 15 13 12 10 9 8 8 10 13 17 19 20 19 18 17 16 16
28 28 28 28 27 27 27 26 26 26 25 24 24 24 24 24 23 23 22 22 22 22 22 22 23 23 24 25 26 26 26 25 24 24 25 26 26 24 22 20 20 19 18 18 17 17 17 16 16 15 15 14 14 14 15 15 14 13 13 14 16 17 18 18 18 18 18 17 15 14 14 12 11 11 11 11 11 13 16 18 19 18 15 12 12 14
28 28 28 28 28 27 27 26 26 26 25 25 24 24 23 23 23 22 22 22 22 22 22 22 23 23 23 24 24 24 24 23 23 24 25 26 25 23 20 19 19 19 18 18 18 18 18 17 17 16 17 18 19 18 18 16 15 15 16 17 17 18 18 18 18 19 18 17 16 15 14 14 13 12 11 10 10 11 13 15 17 15 11 8 9 13
28 28 28 28 28 27 27 26 26 26 25 25 25 24 23 23 22 22 22 21 21 22 22 23 23 23 23 23 23 23 22 22 22 23 25 25 23 21 19 18 18 18 18 18 19 19 19 19 19 20 20 21 20 18 17 17 16 16 17 18 18 17 17 17 18 19 19 18 17 16 15 15 14 13 12 10 9 9 10 10 11 9 6 6 8 12
28 28 28 28 27 27 27 26 26 25 25 25 25 24 24 23 22 22 21 21 21 21 22 22 23 23 23 23 23 23 22 21 21 23 25 24 22 20 19 19 18 18 18 18 19 19 20 20 20 20 20 20 19 17 17 17 17 17 17 17 17 17 16 16 18 18 19 18 18 17 17 16 16 15 13 11 9 8 7 7 6 5 5 7 9 11
29 29 28 28 27 27 26 26 25 25 25 24 24 24 24 23 22 22 21 20 20 21 21 22 22 22 22 22 22 22 21 21 21 23 24 23 20 19 19 19 18 18 18 18 19 19 20 20 19 19 19 18 18 17 17 17 17 16 16 15 16 16 16 17 18 18 19 19 19 19 18 18 17 16 14 12 11 9 8 7 6 6 7 9 10 12
29 29 28 28 28 27 27 26 25 25 24 24 23 23 23 23 22 22 21 20 20 20 20 21 21 21 21 21 21 20 20 20 21 22 23 21 19 18 18 19 18 18 18 17 18 18 18 18 18 18 17 17 17 17 17 17 17 16 14 14 16 17 18 19 19 19 20 21 21 21 20 20 19 17 16 15 13 12 11 10 9 8 8 10 11 12
28 28 28 28 28 27 27 26 25 24 24 23 23 22 22 22 22 21 21 20 20 20 20 20 21 21 20 20 20 19 19 19 20 21 21 20 18 17 17 18 18 18 17 17 17 17 17 16 16 16 16 16 16 16 17 17 17 16 14 13 15 18 20 21 22 22 23 23 23 23 23 22 21 20 19 17 16 15 14 12 10 9 9 10 12 13
Wind_Direction
303 303 302 301 300 300 299 299 298 298 297 296 296 296 295 295 295 295 294 293 293 292 291 290 289 289 289 289 289 289 289 289 289 289 289 290 290 290 290 290 289 289 288 287 287 286 285 284 284 283 282 282 281 280 280 279 278 277 277 276 275 274 273 273 272 271 271 270 269 268 267 267 266 265 264 263 262 260 259 258 257 256 255 254 253 252
303 302 302 301 300 300 299 299 298 298 297 296 296 296 295 295 294 294 293 293 292 291 290 290 289 289 289 289 289 289 289 289 290 290 291 291 291 291 291 290 289 288 288 287 286 285 285 284 284 283 282 282 281 280 279 278 278 277 277 276 275 274 273 273 272 271 271 270 269 269 268 267 266 265 264 263 262 261 259 258 257 256 255 254 253 252
303 302 301 301 300 300 299 299 298 298 297 296 296 295 295 294 294 293 293 292 291 290 290 289 289 289 289 289 289 290 290 290 291 291 292 292 292 291 291 290 289 288 287 286 286 285 285 284 284 283 282 282 281 280 279 278 278 277 276 276 275 274 273 273 272 271 271 270 269 268 268 267 266 265 264 263 262 261 259 258 257 256 255 254 253 252
303 302 302 301 301 300 300 299 298 298 297 296 295 295 294 294 293 292 292 291 290 289 289 289 289 289 289 289 290 290 291 291 292 292 292 292 292 291 290 289 288 287 286 286 285 285 285 284 284 283 283 282 281 280 280 279 278 277 276 276 275 274 273 273 272 271 270 270 269 268 267 266 265 264 263 262 261 260 260 258 257 256 255 255 254 253
303 303 302 302 301 301 300 299 298 297 296 296 295 294 293 293 292 291 290 290 289 288 288 288 288 289 289 290 290 291 292 292 293 293 293 292 291 290 289 288 287 286 286 286 285 285 285 285 284 284 283 283 282 281 280 280 279 278 277 276 275 274 274 273 272 271 271 270 269 268 267 266 265 264 263 262 261 260 259 258 258 257 256 255 254 253
303 303 303 302 301 301 300 299 298 297 296 295 294 293 292 292 291 290 289 288 288 287 287 287 288 289 289 290 291 292 293 293 293 293 292 291 290 289 288 287 286 286 286 286 286 286 286 286 286 285 285 284 284 283 282 281 280 279 278 278 276 276 275 274 273 272 271 270 269 269 268 267 265 264 263 262 261 260 259 258 258 257 256 255 254 253
304 303 303 302 302 301 300 299 298 297 296 295 294 292 291 290 289 289 288 287 287 287 287 287 288 289 290 291 292 293 293 293 293 293 292 290 289 288 287 286 286 286 287 287 288 288 288 287 287 287 287 286 286 285 284 284 283 282 281 280 279 278 277 276 274 273 272 271 270 269 268 267 266 265 263 262 261 260 259 258 257 256 255 254 253 252
304 304 303 302 301 301 300 299 298 296 295 294 293 292 291 290 289 288 287 286 286 286 287 287 288 289 291 292 293 294 294 294 293 292 290 289 287 286 286 286 286 287 288 288 289 289 289 289 289 288 288 288 288 287 287 286 285 284 284 283 282 281 279 278 276 275 273 272 270 269 268 267 266 265 264 262 261 260 259 258 257 256 254 253 252 251
305 304 303 302 302 301 300 299 298 297 296 294 293 292 291 290 288 287 286 286 286 286 287 288 290 291 292 293 294 294 294 293 292 291 289 287 286 285 285 285 286 287 288 288 289 289 289 289 289 290 290 289 289 289 289 288 288 287 287 286 285 283 282 280 278 276 274 272 271 269 268 267 266 265 264 262 261 260 259 258 257 255 254 253 251 250
305 304 304 303 302 301 301 300 299 297 296 295 294 292 291 290 289 287 286 286 286 287 289 290 291 292 293 294 294 293 293 292 290 288 287 285 284 284 284 285 286 287 287 287 288 288 289 289 290 290 290 291 291 291 291 291 290 290 289 288 287 285 283 280 278 276 274 272 271 270 268 267 266 265 264 263 262 260 259 258 256 255 254 252 251 250
305 305 304 304 303 303 302 301 300 299 297 296 295 293 292 291 290 289 289 288 288 289 290 291 293 294 294 294 293 292 291 289 287 286 284 283 283 284 284 285 285 286 286 286 287 287 288 289 290 290 291 291 292 292 292 292 292 291 290 289 288 285 283 280 278 275 274 272 271 270 269 268 267 266 265 263 262 261 259 258 257 255 254 253 252 251
306 306 305 305 305 304 304 303 301 300 299 297 296 295 294 293 292 292 292 292 293 293 293 293 293 294 294 294 292 290 288 286 285 283 283 282 283 283 284 284 285 285 286 286 287 287 288 288 289 290 291 291 292 292 292 292 292 292 291 290 288 286 283 280 277 275 273 272 271 271 270 269 268 267 266 264 263 262 260 259 258 257 256 254 253 252
308 308 308 307 307 306 306 305 303 302 301 300 299 298 297 297 296 296 296 297 297 297 296 295 294 294 294 293 292 290 287 285 284 283 283 283 284 284 285 285 286 286 287 287 287 288 288 288 288 289 289 290 290 291 291 291 291 291 290 289 288 286 283 281 278 276 274 273 273 272 271 270 269 268 267 266 264 263 262 261 260 259 258 257 256 254
310 310 310 310 309 309 308 307 306 305 304 303 303 302 302 302 302 301 301 301 300 299 298 296 295 295 294 293 291 289 288 286 285 284 285 286 286 286 287 287 288 288 289 289 289 289 288 288 287 288 288 288 289 289 290 290 290 289 289 288 286 285 283 281 280 278 277 275 274 273 273 272 271 269 268 267 266 265 264 263 262 261 260 259 257 256
313 313 313 313 312 312 311 310 310 309 309 308 308 308 308 308 308 307 306 305 303 301 299 297 296 296 295 294 293 291 289 287 287 288 288 289 289 290 290 290 291 291 291 291 290 290 288 287 287 287 288 288 289 289 289 289 288 287 287 286 285 284 283 282 281 279 278 277 275 274 273 273 272 271 271 270 269 268 267 266 265 264 262 261 259 257
316 316 316 315 315 315 315 315 314 314 314 314 314 314 314 314 313 312 310 308 306 303 301 299 298 297 296 296 294 292 291 290 290 291 292 293 294 293 293 293 294 294 294 293 292 291 289 289 289 290 291 291 291 290 289 288 287 286 285 284 284 283 283 282 280 279 277 276 275 275 275 276 276 277 277 277 276 275 274 272 270 268 266 263 261 259
318 319 318 318 318 319 320 320 320 320 320 320 320 320 320 319 318 316 313 311 309 306 304 303 302 300 299 297 295 293 292 292 294 296 297 299 299 298 297 297 297 297 296 295 294 293 292 292 293 294 294 294 293 291 290 288 287 286 285 284 283 282 281 279 277 276 275 276 278 281 284 286 287 287 286 285 284 282 280 278 276 273 271 268 265 262
321 321 321 322 322 324 325 325 325 325 325 325 326 325 324 323 321 318 316 314 311 309 308 307 306 305 303 300 297 295 293 295 298 301 303 305 305 303 301 300 300 300 300 298 297 296 296 297 298 298 298 297 295 294 292 291 289 288 286 284 282 280 277 274 273 274 278 284 288 292 293 294 293 291 290 288 286 284 282 281 279 278 276 273 270 266
323 324 325 325 326 328 330 331 331 330 330 329 329 328 327 325 322 319 317 315 313 312 312 312 311 310 308 305 302 299 298 300 303 307 310 312 311 307 304 303 303 304 304 302 301 301 302 302 303 302 301 300 298 297 296 294 292 290 287 283 279 274 271 271 275 283 290 294 297 296 296 295 293 292 289 287 284 282 281 281 280 280 279 277 275 272
326 327 328 329 330 332 335 335 334 333 332 331 330 328 326 324 322 320 318 317 316 317 318 319 318 316 313 311 308 305 305 307 310 314 318 319 316 310 306 306 307 309 309 307 307 307 307 307 306 304 303 302 302 301 300 297 294 290 285 279 273 269 271 279 288 294 297 298 298 298 297 296 294 292 290 287 285 284 283 282 281 281 280 279 277 275
329 331 332 332 333 335 337 337 336 333 331 330 328 327 326 325 324 323 323 323 324 326 327 327 325 321 318 314 312 310 310 312 316 320 324 323 318 312 308 310 313 315 314 313 312 312 312 310 308 306 305 305 305 304 303 299 294 288 281 274 271 274 282 290 296 299 300 301 300 300 299 298 296 295 294 293 292 291 289 287 285 283 281 279 277 275
332 334 336 336 336 336 337 336 335 332 330 329 328 328 328 329 330 330 331 332 333 335 334 332 328 323 319 317 315 314 314 316 320 324 326 325 319 313 311 316 320 322 321 319 318 317 316 314 311 309 308 308 308 307 305 299 292 284 277 273 275 285 293 299 303 305 306 306 306 305 304 304 303 303 302 302 300 299 297 294 292 288 285 281 278 275
334 336 337 337 337 336 335 334 333 332 331 331 331 333 334 336 337 338 338 339 339 338 337 333 328 324 320 318 317 316 316 319 322 326 327 326 320 315 315 320 324 327 326 325 324 323 321 317 313 311 310 311 311 309 305 298 289 280 275 278 289 299 308 313 315 316 316 315 314 313 312 311 310 309 308 306 304 302 300 298 295 292 289 285 281 277
335 336 337 337 336 335 334 334 333 334 334 335 337 339 341 342 342 341 341 340 340 339 337 334 330 326 323 322 321 320 320 322 325 328 328 327 323 319 318 322 327 330 330 329 329 327 325 321 317 314 313 313 313 310 305 295 284 280 284 297 310 319 325 327 327 326 325 322 320 318 315 314 312 310 308 305 303 301 299 298 296 294 291 287 283 279
335 336 336 336 336 335 335 335 336 337 338 340 341 343 344 345 344 342 341 340 340 339 339 337 336 333 331 329 327 325 324 326 328 329 329 328 325 321 320 322 326 330 332 332 331 331 328 324 320 317 316 316 314 311 303 292 286 292 306 321 329 334 336 335 334 331 328 325 322 319 316 313 311 309 306 303 301 299 297 296 295 293 291 288 285 282
334 335 335 335 335 336 336 338 339 340 341 342 343 344 344 344 343 341 340 340 342 343 345 345 345 342 339 335 332 330 328 328 329 330 329 328 325 322 320 320 323 327 331 331 332 332 331 327 324 320 318 317 315 310 301 294 297 312 326 335 339 341 340 338 336 333 329 326 323 320 317 315 312 309 306 303 300 298 297 296 295 293 291 289 286 283
332 333 334 334 335 337 338 339 340 341 341 342 342 342 342 342 342 343 343 345 347 349 351 351 350 348 345 341 336 332 330 330 330 331 330 328 326 323 320 319 320 323 328 330 331 332 332 330 327 323 320 318 315 310 304 302 313 327 337 341 343 343 342 339 336 334 331 328 325 322 318 316 312 309 306 304 301 299 298 297 296 294 292 289 287 284
330 331 333 334 336 338 340 341 342 341 341 340 340 340 340 341 344 346 349 351 352 353 354 353 352 351 348 344 340 335 332 331 332 332 331 330 328 325 322 320 319 320 324 328 330 331 333 333 331 327 322 319 316 312 309 314 328 338 343 345 345 344 342 340 337 334 331 328 325 322 319 316 314 311 309 308 307 305 304 302 299 296 293 290 287 285
330 331 333 335 338 340 341 342 341 341 340 339 339 339 340 342 345 349 352 353 353 354 355 353 352 350 349 346 342 338 335 333 333 333 333 333 331 328 325 322 320 319 321 326 329 332 334 336 335 330 324 319 315 313 316 329 340 346 349 348 346 344 341 338 336 333 330 326 324 323 322 321 320 319 319 319 318 317 314 311 307 303 299 295 291 287
330 333 335 337 339 340 341 341 340 340 339 338 338 339 341 344 347 349 351 352 352 352 353 352 351 350 349 347 345 342 338 336 335 335 335 335 333 331 328 326 323 320 319 322 327 333 336 339 339 335 328 321 316 314 323 339 348 352 351 348 344 341 338 335 332 330 328 326 326 327 329 332 334 335 336 335 334 332 329 325 321 316 311 306 299 293
332 335 337 339 340 340 340 340 339 338 338 338 339 341 343 345 346 347 348 349 349 350 351 351 351 351 350 348 346 344 341 339 337 337 336 336 334 332 330 328 325 322 319 319 324 331 338 340 342 342 337 330 323 321 330 342 350 352 349 344 340 336 333 331 330 328 327 327 328 331 338 343 346 347 347 345 344 342 339 336 333 329 324 319 311 303
335 337 339 340 340 339 339 339 338 338 339 340 341 342 342 343 343 344 345 346 347 348 349 350 351 352 352 350 348 346 344 341 339 338 337 336 334 332 330 328 326 323 319 316 319 327 338 342 346 348 348 345 340 337 339 345 349 348 345 340 336 333 331 329 329 328 327 325 325 330 340 346 349 348 347 346 345 343 341 339 337 334 331 327 321 314
337 339 341 341 340 340 339 339 339 340 340 341 341 341 340 340 341 342 344 346 346 347 347 349 350 352 353 352 350 347 344 342 340 339 337 336 334 332 330 328 327 324 321 316 315 321 331 339 346 352 354 354 352 348 347 348 347 344 341 338 335 332 329 328 327 326 324 321 319 324 336 346 348 346 344 342 341 339 338 336 335 334 332 330 326 321
338 340 341 341 341 340 340 341 341 342 342 341 340 339 338 338 339 341 344 346 347 347 347 347 349 351 353 353 351 348 345 343 341 339 338 337 335 334 331 329 327 326 323 318 314 316 323 331 339 346 351 352 351 350 349 348 345 341 337 335 333 330 326 325 324 324 323 320 317 321 333 344 346 343 340 338 337 336 334 332 331 331 331 330 328 324
339 340 341 342 342 342 342 343 343 343 342 340 339 338 337 337 339 341 344 346 347 347 346 347 348 349 351 351 351 348 346 343 341 340 339 338 337 336 334 331 330 330 328 324 318 314 316 320 326 333 341 345 344 343 343 342 339 336 333 332 330 327 323 321 323 325 325 323 320 321 331 341 343 340 337 336 335 334 332 330 329 330 330 330 329 326
339 340 341 341 342 343 344 344 344 343 341 340 338 337 337 338 339 342 344 346 346 346 346 347 347 348 349 349 349 347 346 344 342 341 341 340 340 340 338 336 335 335 335 333 328 320 315 314 316 322 330 334 334 333 334 335 334 332 331 330 327 323 320 320 322 326 329 328 325 324 328 335 338 338 338 338 337 335 333 331 330 330 331 330 330 328
339 339 340 341 342 343 344 344 344 343 341 340 339 338 337 338 340 341 343 344 345 345 346 346 346 347 348 348 347 346 345 344 343 343 344 344 344 345 344 343 342 342 342 342 337 330 323 317 314 315 320 324 325 326 328 330 330 331 330 329 325 321 319 320 325 331 335 335 330 325 323 328 334 339 343 343 342 339 335 332 331 331 332 332 331 329
338 338 339 340 342 343 343 344 343 342 342 341 339 339 338 339 340 341 342 343 344 345 345 346 346 346 346 346 346 345 344 344 345 346 347 348 349 350 350 350 349 349 348 347 345 340 334 326 319 317 318 320 322 324 326 327 329 329 329 326 322 319 320 326 333 339 342 341 335 328 320 319 325 338 348 349 348 344 340 334 331 331 333 333 332 331
337 338 339 339 340 341 342 342 343 343 342 342 341 340 340 339 340 340 341 342 343 344 345 345 345 345 345 345 345 344 344 345 347 349 351 352 354 355 355 356 355 355 353 351 349 347 344 338 332 327 325 324 324 324 325 326 326 326 326 324 322 322 326 336 344 348 348 345 340 333 322 313 314 329 345 353 353 349 341 331 330 332 335 335 335 333
336 337 338 338 339 340 340 341 342 343 343 343 342 341 341 340 340 340 341 342 343 344 345 346 346 345 345 345 344 344 345 347 350 352 355 356 358 358 359 359 358 358 356 354 352 350 349 345 340 335 331 330 329 329 328 329 328 327 325 325 324 327 337 347 352 352 350 348 344 338 328 315 308 314 331 345 348 341 332 328 332 338 341 341 339 337
336 336 337 337 338 338 339 340 342 343 343 343 343 342 342 341 341 341 341 342 343 344 345 346 346 346 346 345 345 345 346 349 352 356 358 360 0 0 0 360 359 359 357 356 355 355 354 352 348 344 340 338 337 338 338 337 334 331 329 329 333 342 353 356 355 352 350 349 348 345 338 324 311 306 315 327 332 335 341 347 351 352 353 352 350 347
335 335 336 336 336 337 337 338 340 342 343 343 343 342 342 342 341 342 342 343 344 345 346 346 347 347 346 346 346 346 348 351 355 359 1 1 1 0 360 359 359 359 359 360 0 0 0 1 0 359 357 355 353 350 347 344 343 344 346 351 358 3 3 359 356 353 351 352 353 353 349 341 327 316 318 326 340 356 9 12 10 6 3 1 1 360
334 334 335 335 335 335 336 337 338 339 341 341 342 342 342 342 342 343 343 344 345 346 346 346 347 348 348 347 347 348 350 354 358 1 2 2 0 359 358 359 360 1 2 4 5 7 8 10 11 11 11 9 3 358 355 357 4 14 22 24 20 12 4 1 358 356 356 358 0 2 2 1 358 352 351 359 19 30 29 21 14 8 5 5 8 12
333 333 333 333 333 334 334 335 336 337 338 339 340 341 341 342 343 344 345 346 346 346 347 347 348 349 349 349 350 351 353 356 360 2 2 0 358 357 358 0 3 6 7 9 10 13 17 18 18 18 19 19 17 17 24 33 40 43 40 32 24 17 11 7 5 3 3 6 10 13 15 18 23 30 37 45 52 47 33 18 8 3 1 5 14 25
332 331 331 331 332 332 332 333 333 335 336 337 338 339 340 341 343 344 346 347 347 347 347 347 348 350 350 351 352 354 356 359 1 3 1 358 357 358 2 7 12 15 17 19 22 25 27 27 28 30 36 42 48 54 59 59 55 47 36 27 21 17 15 14 13 13 14 18 21 24 25 28 36 46 55 63 64 54 37 21 9 1 358 5 23 38
330 329 329 329 329 330 330 331 332 332 333 335 336 337 339 340 342 344 346 348 348 347 347 347 349 350 352 353 355 357 359 1 3 2 360 357 358 2 10 18 23 26 28 32 36 40 43 44 47 52 59 64 66 67 64 58 48 38 30 26 23 21 19 20 21 23 26 28 30 30 31 33 39 48 59 68 72 66 52 35 21 9 1 17 43 53
327 327 326 327 327 327 328 328 329 330 331 332 334 335 337 339 341 344 346 348 348 348 348 348 349 351 352 354 356 358 1 4 4 3 360 358 2 10 23 31 35 37 40 44 48 52 56 59 63 67 70 69 67 62 55 48 41 34 31 29 27 25 23 25 27 30 32 33 34 35 35 36 39 44 53 63 72 76 71 55 37 22 20 57 71 70
324 324 324 324 324 324 325 326 327 328 329 330 331 333 335 337 340 343 346 347 348 348 348 349 350 351 353 355 356 359 2 5 5 3 0 1 7 20 33 39 43 46 49 54 59 63 66 69 70 70 68 65 60 55 49 45 41 38 36 33 29 25 24 28 31 34 35 37 38 39 41 42 44 46 50 57 67 76 81 74 65 65 86 98 94 87
322 322 322 322 322 321 322 323 324 325 326 328 329 331 333 336 338 341 344 347 348 349 349 349 350 352 354 355 356 358 2 5 6 4 2 4 13 27 39 45 49 53 57 62 67 70 72 72 70 67 64 60 56 53 51 49 46 43 40 35 31 28 29 32 34 37 40 43 44 46 47 48 50 52 56 61 68 75 77 75 77 89 106 109 106 102
321 321 321 320 320 320 320 321 321 322 323 325 326 328 331 334 336 340 342 345 347 349 350 350 351 352 354 355 355 357 1 6 6 5 4 7 18 33 44 51 55 61 66 71 75 76 75 72 68 63 60 58 57 57 56 55 52 49 44 40 37 36 37 37 38 40 44 47 50 51 52 53 55 57 60 65 71 74 74 72 73 84 103 112 113 111
321 321 320 320 319 319 319 319 319 320 321 322 324 326 328 331 334 337 340 343 346 349 350 350 351 352 354 354 355 356 0 5 7 6 5 9 20 37 49 57 63 69 75 78 80 79 76 71 65 60 57 57 59 60 61 60 58 55 50 45 43 43 43 41 41 42 45 49 52 54 56 57 58 60 63 66 71 74 75 73 73 83 103 116 119 117